Wind_Speed
25 25 25 25 25 26 26 27 27 26 26 26 26 27 28 28 28 28 29 30 31 31 32 33 34 34 35 36 36 37 39 39 39 39 40 40 40 40
25 25 25 24 25 25 25 25 25 26 26 25 26 27 27 26 27 28 28 29 29 30 30 32 33 34 35 35 36 36 36 36 37 37 37 36 37 38
25 24 24 24 24 24 24 24 24 24 24 25 25 25 25 26 27 27 28 28 29 30 31 32 33 33 34 34 34 33 34 35 35 34 35 35 35 36
24 25 24 24 24 23 23 23 23 23 24 24 24 24 24 25 25 26 27 27 28 29 30 31 32 32 32 32 31 31 32 32 32 32 33 33 34 34
22 24 24 24 24 23 23 22 23 23 23 23 23 24 24 24 25 26 26 26 27 27 28 29 30 30 29 29 29 29 29 29 29 30 31 32 32 33
20 21 21 22 22 21 21 22 21 21 21 22 22 22 23 23 23 24 24 24 25 25 26 26 26 26 26 26 26 26 27 27 28 29 29 30 30 31
18 18 18 19 21 20 19 19 20 20 20 21 21 21 21 21 21 21 21 22 22 22 22 22 22 22 22 23 24 24 24 25 26 27 27 28 28 29
15 15 16 17 17 17 17 18 18 18 18 18 17 18 18 18 18 18 18 18 18 19 19 19 20 20 20 21 21 22 22 23 24 25 25 26 26 27
11 11 12 13 14 14 14 13 13 14 14 14 14 15 15 15 15 15 15 15 15 15 15 16 16 17 17 18 19 19 21 22 23 23 24 24 25 25
6 6 7 8 9 9 10 10 9 10 11 12 12 13 13 13 12 12 12 13 13 14 14 14 14 15 16 17 18 19 20 21 21 22 22 23 23 23
2 3 3 3 4 4 5 5 6 7 8 8 9 9 9 9 9 9 10 10 10 11 12 12 13 14 15 16 17 18 19 19 20 20 21 21 21 22
2 2 2 2 2 2 2 3 4 5 5 5 5 6 6 6 6 7 8 8 9 10 11 12 13 14 15 15 16 17 17 18 18 19 19 20 20 21
3 3 3 2 2 2 1 1 2 3 3 3 3 3 4 4 4 5 6 7 8 9 10 11 12 12 13 14 15 15 16 17 18 19 19 20 20 21
4 4 4 4 4 4 3 2 2 1 0 1 1 2 2 3 3 4 5 6 7 8 9 10 11 12 12 13 13 14 15 16 17 18 19 20 21 22
6 6 6 6 6 5 5 4 4 3 3 2 2 2 2 3 4 5 6 7 7 8 9 10 10 11 12 13 13 15 16 17 18 19 20 20 22 22
8 7 7 7 6 6 6 6 6 5 5 5 5 4 4 4 5 5 6 7 8 8 9 10 11 12 13 14 15 16 17 18 19 20 21 21 22 23
9 8 8 8 7 7 7 7 7 8 8 7 7 7 7 6 6 7 7 8 9 10 11 11 12 13 14 15 16 17 18 19 20 20 21 22 23 25
10 10 10 10 10 10 10 10 10 10 9 9 9 9 8 8 8 8 9 10 11 12 13 13 14 14 15 16 17 18 19 20 21 21 22 24 25 26
11 11 11 11 11 11 11 11 11 11 10 10 10 10 10 10 10 10 10 11 12 13 14 15 15 16 16 17 18 20 21 22 23 24 25 26 26 27
12 12 12 12 12 12 12 12 12 12 11 11 11 11 11 11 11 11 12 12 13 14 15 16 17 18 19 20 21 22 23 24 25 26 27 27 28 29
12 12 12 12 12 12 12 12 11 11 11 11 11 11 11 11 12 12 13 14 14 15 16 17 19 20 21 22 23 24 26 27 28 29 29 30 30 30
11 11 11 11 11 11 11 10 10 10 10 10 10 10 11 12 12 13 14 15 16 17 18 19 21 22 23 25 26 27 28 29 30 31 32 33 33 33
10 10 10 9 9 9 9 9 9 9 9 9 10 11 11 12 13 14 15 16 17 18 20 21 23 24 25 27 28 29 30 31 31 32 33 35 35 35
Wind_Direction
264 263 262 262 261 261 260 260 261 261 261 261 261 260 260 260 260 261 260 262 262 262 264 264 267 269 270 273 273 275 276 277 278 278 278 278 279 279
263 261 260 260 260 261 261 260 259 261 262 261 261 261 259 259 259 261 262 264 264 264 264 265 268 271 273 273 275 276 277 277 278 279 280 279 280 281
262 261 259 257 258 259 259 259 262 262 261 259 260 259 257 260 262 263 264 265 266 264 266 269 271 273 275 275 277 278 278 279 281 281 281 282 282 283
261 260 258 257 257 257 257 259 260 261 260 259 260 260 262 262 263 264 266 266 267 269 270 272 274 275 276 277 277 279 280 281 282 283 284 285 285 286
262 259 258 258 259 258 258 258 260 260 259 260 262 262 263 263 264 265 267 269 270 272 273 273 275 276 278 279 281 282 283 284 286 287 288 289 289 289
262 262 260 258 257 257 257 258 259 258 258 260 262 263 264 266 267 268 269 270 270 272 274 275 277 278 280 281 283 285 286 288 290 291 292 292 292 292
260 259 258 258 254 256 257 257 256 256 258 260 262 265 266 268 270 271 271 272 274 276 277 278 280 283 284 284 287 289 291 292 293 294 295 296 297 297
257 255 254 253 254 255 256 257 257 257 258 261 264 265 268 270 271 273 274 275 277 277 280 282 283 285 288 289 290 292 294 297 299 300 301 302 302 301
258 253 251 252 252 256 256 257 259 256 258 261 265 266 269 270 272 273 274 277 280 282 284 287 289 293 294 295 297 298 300 301 302 304 304 305 305 304
260 252 246 247 251 250 250 255 259 261 262 264 267 268 268 270 273 276 279 280 282 285 289 294 297 299 301 303 303 304 304 305 305 305 306 306 306 307
231 224 233 244 241 238 241 247 259 263 262 262 265 266 267 272 277 281 285 289 291 294 297 301 305 306 307 309 309 309 308 308 308 308 309 309 309 309
158 166 173 180 184 194 215 233 248 251 254 261 266 272 279 283 286 289 293 297 299 303 305 307 310 312 312 313 313 314 314 314 313 313 313 313 313 312
130 129 127 128 133 140 164 213 240 245 253 262 278 286 291 301 307 309 310 313 313 314 314 315 315 316 318 318 318 319 320 319 319 318 318 317 316 314
118 118 115 107 99 96 93 84 77 88 29 291 291 318 335 339 341 340 337 335 332 329 326 324 322 322 324 325 324 324 323 322 322 321 321 320 319 318
109 104 98 91 84 82 81 76 69 65 65 59 47 36 25 16 9 1 355 352 348 343 339 336 334 332 331 330 328 327 327 326 325 324 324 323 322 320
103 97 92 90 86 79 73 73 72 71 68 67 64 58 50 40 28 19 11 4 2 356 351 348 344 340 337 334 331 330 329 328 327 326 324 323 322 321
97 95 92 87 84 81 78 76 77 76 74 74 68 62 58 52 42 32 24 18 10 4 358 351 348 344 341 338 336 334 332 330 329 327 325 323 321 320
94 93 91 88 85 83 83 81 78 76 75 73 70 65 60 52 43 34 25 17 10 5 1 357 351 347 344 342 340 338 336 333 331 329 327 325 324 322
91 90 89 87 85 84 81 78 76 74 73 70 67 62 55 48 40 32 24 17 13 8 4 360 355 350 346 343 341 339 336 333 331 329 327 326 325 324
90 88 88 87 84 82 80 77 74 71 69 66 61 55 49 44 38 31 24 17 12 8 4 360 355 351 347 343 340 337 335 333 332 330 329 328 327 325
89 88 87 85 83 80 77 73 70 67 65 61 55 49 42 36 30 25 20 15 9 5 2 359 355 352 349 346 343 340 336 333 332 330 328 327 327 326
88 87 85 82 79 76 72 69 66 63 58 51 43 36 30 26 20 15 11 7 3 0 358 355 352 349 347 345 343 340 338 335 333 331 329 329 328 327
85 83 80 76 72 69 66 62 57 51 44 36 29 24 19 15 11 7 3 1 358 355 352 350 348 347 344 343 342 340 338 336 334 332 331 329 328 327
Height
5780 5780 5781 5781 5782 5783 5784 5785 5787 5787 5788 5789 5790 5791 5791 5792 5792 5792 5793 5793 5793 5794 5794 5794 5794 5793 5793 5792 5791 5790 5789 5788 5786 5785 5783 5782 5780 5778
5772 5773 5774 5775 5776 5776 5777 5778 5779 5780 5781 5782 5783 5784 5784 5785 5785 5785 5786 5786 5786 5786 5786 5786 5786 5785 5785 5784 5783 5782 5780 5779 5778 5776 5774 5772 5770 5769
5765 5766 5767 5768 5769 5770 5771 5771 5772 5773 5774 5775 5776 5776 5777 5778 5778 5778 5779 5779 5779 5779 5779 5778 5778 5777 5776 5776 5774 5773 5772 5771 5769 5767 5766 5764 5762 5760
5758 5759 5760 5761 5762 5763 5764 5765 5766 5767 5768 5768 5769 5770 5770 5771 5771 5772 5772 5772 5772 5772 5771 5771 5770 5770 5769 5767 5766 5765 5764 5763 5761 5759 5757 5756 5754 5752
5751 5752 5753 5754 5756 5757 5758 5759 5760 5761 5761 5762 5763 5763 5764 5764 5765 5765 5765 5765 5765 5765 5764 5764 5763 5762 5761 5760 5759 5758 5757 5755 5754 5752 5750 5748 5746 5744
5745 5746 5747 5748 5750 5751 5752 5753 5754 5755 5756 5756 5757 5757 5758 5758 5758 5759 5759 5759 5759 5758 5758 5757 5756 5755 5754 5753 5752 5751 5750 5748 5747 5745 5743 5741 5738 5736
5739 5740 5741 5743 5744 5745 5747 5748 5749 5750 5751 5751 5751 5752 5752 5753 5753 5753 5753 5753 5753 5752 5751 5751 5750 5749 5748 5747 5746 5745 5743 5742 5740 5738 5736 5734 5731 5729
5734 5735 5736 5737 5739 5740 5741 5743 5744 5745 5746 5746 5747 5747 5748 5748 5748 5748 5748 5748 5748 5747 5747 5746 5745 5744 5743 5742 5741 5739 5738 5736 5734 5732 5730 5727 5725 5722
5730 5731 5732 5733 5735 5736 5737 5738 5739 5740 5741 5742 5743 5743 5743 5744 5744 5744 5744 5743 5743 5743 5742 5741 5740 5739 5738 5737 5736 5734 5733 5731 5729 5727 5724 5722 5719 5716
5728 5728 5729 5731 5732 5733 5734 5735 5736 5737 5738 5738 5738 5739 5739 5740 5740 5740 5740 5740 5739 5739 5738 5737 5736 5735 5734 5733 5731 5730 5728 5726 5724 5721 5719 5716 5714 5711
5726 5727 5728 5729 5730 5731 5732 5733 5734 5734 5735 5735 5735 5736 5736 5736 5737 5737 5737 5736 5736 5736 5735 5734 5733 5732 5730 5729 5727 5725 5723 5721 5719 5717 5714 5712 5709 5706
5726 5727 5728 5729 5729 5730 5731 5731 5732 5732 5733 5733 5734 5734 5734 5734 5734 5734 5734 5734 5733 5733 5732 5731 5730 5729 5727 5726 5724 5722 5719 5717 5715 5712 5710 5707 5704 5701
5727 5727 5728 5729 5729 5730 5730 5731 5731 5731 5732 5732 5733 5733 5733 5733 5733 5732 5732 5732 5731 5731 5730 5729 5728 5726 5725 5723 5721 5719 5716 5714 5711 5709 5706 5703 5700 5697
5728 5728 5729 5729 5729 5730 5730 5730 5731 5731 5731 5732 5732 5732 5732 5732 5732 5731 5731 5730 5730 5729 5728 5726 5725 5724 5722 5720 5718 5716 5713 5710 5708 5705 5702 5699 5695 5692
5729 5729 5730 5730 5730 5731 5731 5731 5731 5731 5731 5731 5732 5732 5732 5731 5731 5731 5730 5729 5728 5727 5726 5725 5723 5721 5720 5718 5715 5713 5710 5707 5704 5701 5698 5694 5691 5687
5731 5731 5731 5732 5732 5732 5732 5732 5732 5732 5732 5732 5732 5732 5732 5731 5731 5730 5730 5729 5728 5726 5725 5723 5721 5719 5717 5715 5713 5710 5707 5704 5701 5697 5694 5690 5686 5682
5733 5733 5733 5734 5734 5734 5734 5734 5734 5733 5733 5733 5733 5733 5732 5732 5731 5731 5730 5729 5727 5726 5724 5722 5720 5717 5715 5713 5710 5707 5704 5701 5697 5693 5690 5686 5682 5677
5735 5736 5736 5736 5736 5736 5736 5736 5736 5735 5735 5735 5735 5734 5734 5733 5732 5731 5730 5729 5727 5725 5723 5721 5719 5716 5714 5711 5708 5704 5701 5697 5693 5689 5685 5681 5677 5672
5739 5739 5739 5739 5739 5739 5739 5739 5738 5738 5738 5737 5737 5736 5735 5734 5733 5732 5731 5729 5727 5725 5723 5721 5718 5715 5712 5709 5706 5701 5697 5693 5689 5685 5680 5676 5671 5667
5742 5742 5742 5742 5742 5742 5742 5742 5741 5741 5740 5739 5739 5738 5737 5736 5734 5733 5731 5729 5727 5725 5723 5720 5716 5713 5709 5706 5702 5698 5693 5689 5684 5680 5675 5670 5665 5660
5746 5746 5746 5746 5745 5745 5745 5744 5744 5743 5742 5741 5740 5739 5738 5737 5735 5733 5731 5729 5727 5724 5721 5718 5715 5711 5707 5703 5699 5695 5690 5684 5679 5674 5669 5664 5659 5654
5749 5749 5749 5749 5748 5748 5747 5747 5746 5745 5744 5743 5742 5740 5739 5737 5735 5734 5731 5729 5726 5723 5720 5717 5713 5709 5704 5700 5695 5690 5686 5680 5674 5668 5662 5656 5651 5646
5752 5752 5752 5751 5751 5750 5749 5749 5748 5747 5746 5744 5743 5741 5740 5738 5736 5733 5731 5728 5725 5722 5718 5715 5710 5706 5701 5696 5691 5686 5680 5675 5669 5664 5658 5650 5643 5637